Madison, SD

3:12 AM CDT on August 19, 2017 (GMT -0500)
Madison Municipal

Weather History for KMDS - November, 2012

Change the Weather History Date:

Tuesday, November 6, 2012

  Actual Average Record
Temperature  
Mean Temperature 40 °F -  
Max Temperature 48 °F 44 °F 66 °F (2016)
Min Temperature 32 °F 26 °F 17 °F (2013)
Degree Days  
Heating Degree Days 25    
Moisture  
Dew Point 36 °F    
Average Humidity 89    
Maximum Humidity 100    
Minimum Humidity 57    
Precipitation  
Precipitation 0.00 in - - ()
Sea Level Pressure  
Sea Level Pressure 29.95 in    
Wind  
Wind Speed 19 mph (NW)    
Max Wind Speed 36 mph    
Max Gust Speed 43 mph    
Visibility 10 miles    
Events      
Averages and records for this station are not official NWS values.
T = Trace of Precipitation, MM = Missing Value Source: NWS Daily Summary

Daily Weather History Graph

Daily Weather History Graph

Search for Another Location

Airport or City:

Trip Planner

Search our weather history database for the weather conditions in past years. The results will help you decide how hot, cold, wet, or windy it might be!

Date:

Astronomy

Nov. 06, 2012 Rise Set
Actual Time 7:12 AM CST 5:11 PM CST
Civil Twilight 6:41 AM CST 5:41 PM CST
Nautical Twilight 6:07 AM CST 6:16 PM CST
Astronomical Twilight 5:33 AM CST 6:49 PM CST
Moon 11:54 PM CST (11/6) 1:03 PM CST (11/6)
Length of Visible Light 11h 00m
Length of Day
9h 59m
Waning Gibbous, 53% of the Moon is Illuminated
Nov 6
Waning Gibbous
Nov 6
Last Quarter
Nov 13
New
Nov 20
First Quarter
Nov 28
Full

Hourly Weather History & Observations

Time (CST) Temp. Windchill Dew Point Humidity Pressure Visibility Wind Dir Wind Speed Gust Speed Precip Events Conditions
12:00 AM 35.6 °F 25.2 °F 35.6 °F 100% 29.86 in 10.0 mi SSW 18.4 mph - N/A   Overcast
12:20 AM 35.6 °F 25.2 °F 35.6 °F 100% 29.84 in 10.0 mi SSW 18.4 mph 26.5 mph N/A   Overcast
12:40 AM 35.6 °F 25.2 °F 35.6 °F 100% 29.82 in 10.0 mi SSW 18.4 mph - N/A   Overcast
1:00 AM 35.6 °F 25.9 °F 35.6 °F 100% 29.83 in 10.0 mi SW 16.1 mph 21.9 mph N/A   Mostly Cloudy
1:20 AM 37.4 °F 27.5 °F 37.4 °F 100% 29.82 in 10.0 mi SW 18.4 mph 23.0 mph N/A   Mostly Cloudy
1:40 AM 37.4 °F 27.5 °F 37.4 °F 100% 29.84 in 10.0 mi WSW 18.4 mph 24.2 mph N/A   Mostly Cloudy
2:00 AM 37.4 °F 29.8 °F 37.4 °F 100% 29.85 in 10.0 mi NW 11.5 mph 27.6 mph N/A   Overcast
2:20 AM 37.4 °F 30.3 °F 37.4 °F 100% 29.84 in 10.0 mi West 10.4 mph - N/A   Overcast
2:40 AM 37.4 °F 29.8 °F 37.4 °F 100% 29.84 in 10.0 mi West 11.5 mph - N/A   Mostly Cloudy
3:00 AM 37.4 °F 28.9 °F 37.4 °F 100% 29.85 in 10.0 mi WNW 13.8 mph - N/A   Partly Cloudy
3:20 AM 37.4 °F 28.2 °F 37.4 °F 100% 29.85 in 10.0 mi NW 16.1 mph 24.2 mph N/A   Scattered Clouds
3:40 AM 37.4 °F 27.8 °F 37.4 °F 100% 29.86 in 10.0 mi NW 17.3 mph 23.0 mph N/A   Partly Cloudy
4:00 AM 37.4 °F 27.5 °F 37.4 °F 100% 29.86 in 10.0 mi NW 18.4 mph 26.5 mph N/A   Clear
4:20 AM 37.4 °F 28.5 °F 37.4 °F 100% 29.87 in 10.0 mi NW 15.0 mph 23.0 mph N/A   Clear
4:40 AM 37.4 °F 27.5 °F 37.4 °F 100% 29.87 in 10.0 mi NW 18.4 mph 21.9 mph N/A   Clear
5:00 AM 37.4 °F 26.9 °F 37.4 °F 100% 29.88 in 10.0 mi NW 20.7 mph 25.3 mph N/A   Clear
5:20 AM 37.4 °F 27.5 °F 37.4 °F 100% 29.89 in 10.0 mi NW 18.4 mph 25.3 mph N/A   Clear
5:40 AM 35.6 °F 25.2 °F 35.6 °F 100% 29.89 in 10.0 mi NW 18.4 mph 25.3 mph N/A   Clear
6:00 AM 35.6 °F 24.5 °F 35.6 °F 100% 29.90 in 10.0 mi NW 20.7 mph 26.5 mph N/A   Clear
6:20 AM 35.6 °F 24.8 °F 35.6 °F 100% 29.90 in 10.0 mi NW 19.6 mph 26.5 mph N/A   Clear
6:40 AM 35.6 °F 24.8 °F 35.6 °F 100% 29.91 in 10.0 mi NW 19.6 mph 25.3 mph N/A   Clear
7:00 AM 35.6 °F 24.8 °F 35.6 °F 100% 29.93 in 10.0 mi NW 19.6 mph 25.3 mph N/A   Clear
7:20 AM 33.8 °F 22.8 °F 33.8 °F 100% 29.92 in 10.0 mi WNW 18.4 mph 23.0 mph N/A   Clear
7:40 AM 35.6 °F 25.2 °F 35.6 °F 100% 29.94 in 10.0 mi WNW 18.4 mph 25.3 mph N/A   Clear
8:00 AM 35.6 °F 24.8 °F 35.6 °F 100% 29.94 in 10.0 mi WNW 19.6 mph 31.1 mph N/A   Partly Cloudy
8:20 AM 35.6 °F 24.8 °F 35.6 °F 100% 29.95 in 10.0 mi NW 19.6 mph 27.6 mph N/A   Partly Cloudy
8:40 AM 37.4 °F 26.6 °F 37.4 °F 100% 29.95 in 10.0 mi WNW 21.9 mph 27.6 mph N/A   Clear
9:00 AM 37.4 °F 26.9 °F 37.4 °F 100% 29.95 in 10.0 mi NW 20.7 mph 32.2 mph N/A   Mostly Cloudy
9:20 AM 39.2 °F 28.0 °F 37.4 °F 93% 29.96 in 10.0 mi NW 26.5 mph 33.4 mph N/A   Partly Cloudy
9:40 AM 39.2 °F 27.6 °F 37.4 °F 93% 29.96 in 10.0 mi NW 28.8 mph 35.7 mph N/A   Clear
10:00 AM 41.0 °F 30.5 °F 37.4 °F 87% 29.96 in 10.0 mi NW 26.5 mph 35.7 mph N/A   Clear
10:20 AM 41.0 °F 30.5 °F 37.4 °F 87% 29.96 in 10.0 mi NW 26.5 mph 40.3 mph N/A   Partly Cloudy
10:40 AM 42.8 °F 32.5 °F 37.4 °F 81% 29.96 in 10.0 mi NW 28.8 mph 35.7 mph N/A   Clear
11:00 AM 44.6 °F 34.7 °F 37.4 °F 76% 29.96 in 10.0 mi NW 29.9 mph 35.7 mph N/A   Clear
11:20 AM 44.6 °F 34.9 °F 37.4 °F 76% 29.96 in 10.0 mi NW 28.8 mph 36.8 mph N/A   Partly Cloudy
11:40 AM 44.6 °F 34.6 °F 35.6 °F 71% 29.96 in 10.0 mi NW 31.1 mph 38.0 mph N/A   Mostly Cloudy
12:00 PM 46.4 °F 37.7 °F 35.6 °F 66% 29.95 in 10.0 mi NW 26.5 mph 38.0 mph N/A   Mostly Cloudy
12:20 PM 46.4 °F 37.5 °F 35.6 °F 66% 29.95 in 10.0 mi NW 27.6 mph 36.8 mph N/A   Scattered Clouds
12:40 PM 48.2 °F - 35.6 °F 62% 29.95 in 10.0 mi NW 32.2 mph 40.3 mph N/A   Scattered Clouds
1:00 PM 46.4 °F 36.4 °F 35.6 °F 66% 29.95 in 10.0 mi NW 35.7 mph 41.4 mph N/A   Mostly Cloudy
1:20 PM 46.4 °F 36.9 °F 35.6 °F 66% 29.96 in 10.0 mi NNW 32.2 mph 40.3 mph N/A   Mostly Cloudy
1:40 PM 46.4 °F 37.4 °F 35.6 °F 66% 29.96 in 10.0 mi NW 28.8 mph 39.1 mph N/A   Overcast
2:00 PM 46.4 °F 37.9 °F 35.6 °F 66% 29.97 in 10.0 mi NNW 25.3 mph 38.0 mph N/A   Overcast
2:20 PM 46.4 °F 37.4 °F 33.8 °F 62% 29.96 in 10.0 mi NW 28.8 mph 36.8 mph N/A   Overcast
2:40 PM 46.4 °F 37.2 °F 33.8 °F 62% 29.97 in 10.0 mi NNW 29.9 mph 40.3 mph N/A   Overcast
3:00 PM 46.4 °F 37.0 °F 33.8 °F 62% 29.97 in 10.0 mi NW 31.1 mph 40.3 mph N/A   Overcast
3:20 PM 46.4 °F 37.2 °F 33.8 °F 62% 29.98 in 10.0 mi NNW 29.9 mph 42.6 mph N/A   Mostly Cloudy
3:40 PM 46.4 °F 37.0 °F 32.0 °F 57% 29.99 in 10.0 mi NNW 31.1 mph 40.3 mph N/A   Mostly Cloudy
4:00 PM 46.4 °F 38.1 °F 32.0 °F 57% 30.00 in 10.0 mi NNW 24.2 mph 34.5 mph N/A   Mostly Cloudy
4:20 PM 46.4 °F 38.5 °F 33.8 °F 62% 30.00 in 10.0 mi NNW 21.9 mph 32.2 mph N/A   Mostly Cloudy
4:40 PM 44.6 °F 36.1 °F 33.8 °F 66% 30.00 in 10.0 mi NW 21.9 mph 32.2 mph N/A   Mostly Cloudy
5:00 PM 44.6 °F 37.4 °F 33.8 °F 66% 30.01 in 10.0 mi NNW 16.1 mph 24.2 mph N/A   Scattered Clouds
5:20 PM 41.0 °F 34.3 °F 35.6 °F 81% 30.01 in 10.0 mi NNW 11.5 mph - N/A   Partly Cloudy
5:40 PM 39.2 °F 32.0 °F 35.6 °F 87% 30.01 in 10.0 mi NNW 11.5 mph - N/A   Partly Cloudy
6:00 PM 39.2 °F 32.0 °F 35.6 °F 87% 30.01 in 10.0 mi NW 11.5 mph - N/A   Clear
6:20 PM 39.2 °F 33.6 °F 35.6 °F 87% 30.02 in 10.0 mi NW 8.1 mph - N/A   Scattered Clouds
6:40 PM 37.4 °F 31.4 °F 35.6 °F 93% 30.02 in 10.0 mi NW 8.1 mph - N/A   Partly Cloudy
7:00 PM 37.4 °F 30.3 °F 35.6 °F 93% 30.02 in 10.0 mi NW 10.4 mph - N/A   Clear
7:20 PM 37.4 °F 30.3 °F 35.6 °F 93% 30.02 in 10.0 mi NW 10.4 mph - N/A   Partly Cloudy
7:40 PM 37.4 °F 29.3 °F 35.6 °F 93% 30.03 in 10.0 mi NW 12.7 mph - N/A   Clear
8:00 PM 37.4 °F 29.8 °F 35.6 °F 93% 30.03 in 10.0 mi NW 11.5 mph - N/A   Clear
8:20 PM 35.6 °F 27.1 °F 35.6 °F 100% 30.03 in 10.0 mi NNW 12.7 mph - N/A   Clear
8:40 PM 35.6 °F 27.1 °F 35.6 °F 100% 30.03 in 10.0 mi NNW 12.7 mph - N/A   Clear
9:00 PM 35.6 °F 27.5 °F 35.6 °F 100% 30.04 in 10.0 mi NW 11.5 mph - N/A   Clear
9:20 PM 35.6 °F 27.1 °F 35.6 °F 100% 30.05 in 10.0 mi NW 12.7 mph - N/A   Clear
9:40 PM 33.8 °F 25.8 °F 33.8 °F 100% 30.05 in 10.0 mi NW 10.4 mph - N/A   Clear
10:00 PM 32.0 °F 23.0 °F 32.0 °F 100% 30.05 in 10.0 mi NNW 11.5 mph - N/A   Clear
10:20 PM 32.0 °F 23.0 °F 32.0 °F 100% 30.06 in 10.0 mi NW 11.5 mph - N/A   Clear
10:40 PM 32.0 °F 22.5 °F 32.0 °F 100% 30.06 in 10.0 mi NNW 12.7 mph - N/A   Clear
11:00 PM 32.0 °F 23.0 °F 32.0 °F 100% 30.06 in 10.0 mi NW 11.5 mph - N/A   Clear
11:20 PM 32.0 °F 23.0 °F 32.0 °F 100% 30.06 in 10.0 mi NW 11.5 mph - N/A   Clear
11:40 PM 32.0 °F 24.2 °F 32.0 °F 100% 30.06 in 10.0 mi NNW 9.2 mph - N/A   Clear